EJM912 KNEW-KABE

Flight info

Callsign EJM912
Flight time 1h 56m
Altitude 41000
Route SJI NOONE SOT BKW COURG SCAPE HAR V162 DUMMR
Aircraft C700/M-SBDGHM1RWXY/LB2

Departure

Time 2026-05-08 00:47
Airport Lakefront Airport (KNEW)

Arrival

Time 2026-05-08 02:44
Airport Lehigh Valley International Airport (KABE)
Time Latitude Longitude Altitude Speed Heading
2026-05-07 23:01 30.03473 -90.02766 9 ft 0 kts 137°
2026-05-08 00:22 30.03473 -90.02767 9 ft 2 kts 137°
2026-05-08 00:22 30.03487 -90.02782 9 ft 3 kts 137°
2026-05-08 00:22 30.03489 -90.02783 9 ft 0 kts 137°
2026-05-08 00:45 30.03486 -90.02782 9 ft 0 kts 151°
2026-05-08 00:45 30.03482 -90.02780 9 ft 3 kts 162°
2026-05-08 00:46 30.03465 -90.02817 8 ft 6 kts 283°
2026-05-08 00:46 30.03494 -90.02860 7 ft 8 kts 269°
2026-05-08 00:46 30.03449 -90.02920 6 ft 11 kts 217°
2026-05-08 00:46 30.03466 -90.02967 6 ft 9 kts
2026-05-08 00:47 30.03596 -90.02970 7 ft 53 kts 358°
2026-05-08 00:47 30.04309 -90.02970 65 ft 140 kts 360°
2026-05-08 00:47 30.05409 -90.02929 777 ft 178 kts
2026-05-08 00:47 30.06738 -90.02946 1536 ft 194 kts 358°
2026-05-08 00:48 30.08141 -90.03036 2009 ft 216 kts 358°
2026-05-08 00:48 30.09642 -90.03126 2011 ft 212 kts 358°
2026-05-08 00:48 30.11082 -90.03209 2008 ft 203 kts 358°
2026-05-08 00:48 30.12509 -90.03088 2004 ft 222 kts 24°
2026-05-08 00:49 30.13615 -90.01722 2842 ft 252 kts 68°
2026-05-08 00:49 30.14005 -89.99709 4267 ft 266 kts 78°
2026-05-08 00:49 30.14484 -89.97598 5698 ft 276 kts 69°
2026-05-08 00:49 30.15251 -89.95543 7257 ft 283 kts 63°
2026-05-08 00:50 30.16100 -89.93439 8660 ft 294 kts 64°
2026-05-08 00:50 30.16912 -89.91222 10067 ft 305 kts 66°
2026-05-08 00:50 30.17754 -89.88867 11060 ft 331 kts 66°
2026-05-08 00:50 30.18680 -89.86338 12149 ft 348 kts 66°
2026-05-08 00:51 30.19642 -89.83723 13532 ft 359 kts 66°
2026-05-08 00:51 30.20633 -89.81014 14700 ft 371 kts 66°
2026-05-08 00:51 30.21654 -89.78217 15825 ft 383 kts 66°
2026-05-08 00:51 30.22692 -89.75373 16937 ft 394 kts 66°
2026-05-08 00:52 30.23776 -89.72406 18044 ft 406 kts 66°
2026-05-08 00:52 30.24887 -89.69358 19040 ft 415 kts 66°
2026-05-08 00:52 30.26017 -89.66253 20095 ft 422 kts 65°
2026-05-08 00:52 30.27166 -89.63100 21106 ft 429 kts 65°
2026-05-08 00:53 30.28333 -89.59891 22116 ft 436 kts 65°
2026-05-08 00:53 30.29520 -89.56624 23091 ft 443 kts 65°
2026-05-08 00:53 30.30723 -89.53308 23966 ft 450 kts 65°
2026-05-08 00:53 30.31945 -89.49941 24756 ft 457 kts 65°
2026-05-08 00:54 30.33184 -89.46518 25553 ft 464 kts 65°
2026-05-08 00:54 30.34440 -89.43049 26347 ft 471 kts 65°
2026-05-08 00:54 30.35714 -89.39525 27130 ft 477 kts 65°
2026-05-08 00:54 30.37003 -89.35957 27875 ft 484 kts 65°
2026-05-08 00:55 30.38308 -89.32341 28592 ft 491 kts 65°
2026-05-08 00:55 30.39617 -89.28708 29317 ft 497 kts 65°
2026-05-08 00:55 30.40956 -89.24987 30046 ft 504 kts 65°
2026-05-08 00:55 30.42315 -89.21213 30696 ft 510 kts 65°
2026-05-08 00:56 30.43684 -89.17399 31334 ft 515 kts 65°
2026-05-08 00:56 30.45065 -89.13553 31932 ft 520 kts 66°
2026-05-08 00:56 30.46459 -89.09665 32517 ft 524 kts 66°
2026-05-08 00:56 30.47864 -89.05740 33090 ft 529 kts 66°
2026-05-08 00:57 30.49273 -89.01799 33841 ft 528 kts 66°
2026-05-08 00:57 30.50675 -88.97873 34533 ft 527 kts 66°
2026-05-08 00:57 30.52064 -88.93985 35204 ft 527 kts 66°
2026-05-08 00:57 30.53464 -88.90059 35874 ft 526 kts 65°
2026-05-08 00:58 30.54862 -88.86130 36493 ft 526 kts 65°
2026-05-08 00:58 30.56259 -88.82203 37076 ft 526 kts 65°
2026-05-08 00:58 30.57653 -88.78282 37624 ft 526 kts 65°
2026-05-08 00:58 30.59047 -88.74351 38166 ft 526 kts 64°
2026-05-08 00:59 30.60438 -88.70428 38640 ft 526 kts 64°
2026-05-08 00:59 30.61830 -88.66496 39040 ft 525 kts 64°
2026-05-08 00:59 30.63218 -88.62573 39427 ft 524 kts 64°
2026-05-08 00:59 30.64600 -88.58659 39787 ft 524 kts 64°
2026-05-08 01:00 30.65964 -88.54794 40139 ft 523 kts 64°
2026-05-08 01:00 30.67340 -88.50892 40481 ft 522 kts 64°
2026-05-08 01:00 30.68714 -88.46989 40809 ft 521 kts 64°
2026-05-08 01:00 30.70088 -88.43082 41004 ft 524 kts 64°
2026-05-08 01:01 30.71606 -88.39223 41009 ft 526 kts 56°
2026-05-08 01:01 30.75991 -88.32479 41016 ft 522 kts 37°
2026-05-08 01:02 30.81426 -88.26828 41027 ft 529 kts 33°
2026-05-08 01:02 30.86978 -88.21058 41023 ft 540 kts 33°
2026-05-08 01:03 30.92630 -88.15205 41020 ft 544 kts 34°
2026-05-08 01:03 30.98256 -88.09350 41026 ft 540 kts 33°
2026-05-08 01:04 31.03836 -88.03554 41020 ft 541 kts 33°
2026-05-08 01:04 31.09474 -87.97673 41014 ft 545 kts 33°
2026-05-08 01:05 31.15142 -87.91758 41020 ft 545 kts 33°
2026-05-08 01:05 31.20790 -87.85849 41020 ft 545 kts 33°
2026-05-08 01:06 31.26394 -87.79981 41022 ft 544 kts 33°
2026-05-08 01:06 31.32026 -87.74072 41026 ft 543 kts 33°
2026-05-08 01:07 31.37648 -87.68163 41026 ft 542 kts 33°
2026-05-08 01:07 31.43266 -87.62251 41025 ft 543 kts 33°
2026-05-08 01:08 31.48895 -87.56315 41031 ft 546 kts 33°
2026-05-08 01:08 31.54526 -87.50367 41028 ft 548 kts 33°
2026-05-08 01:09 31.60181 -87.44380 41028 ft 546 kts 33°
2026-05-08 01:09 31.65821 -87.38405 41025 ft 544 kts 33°
2026-05-08 01:10 31.71436 -87.32444 41018 ft 545 kts 33°
2026-05-08 01:10 31.76119 -87.27466 41007 ft 547 kts 33°
2026-05-08 01:11 31.81781 -87.21433 40989 ft 550 kts 33°
2026-05-08 01:11 31.87451 -87.15384 40971 ft 550 kts 33°
2026-05-08 01:12 31.93110 -87.09334 40955 ft 548 kts 33°
2026-05-08 01:12 31.98751 -87.03297 40949 ft 546 kts 33°
2026-05-08 01:13 32.04382 -86.97260 40968 ft 549 kts 33°
2026-05-08 01:13 32.10004 -86.91219 40982 ft 552 kts 33°
2026-05-08 01:14 32.15677 -86.85112 40996 ft 551 kts 33°
2026-05-08 01:14 32.21328 -86.79019 41008 ft 549 kts 33°
2026-05-08 01:15 32.26961 -86.72937 40998 ft 547 kts 33°
2026-05-08 01:15 32.32593 -86.66847 41005 ft 550 kts 33°
2026-05-08 01:16 32.38250 -86.60714 41028 ft 553 kts 33°
2026-05-08 01:16 32.43882 -86.54597 41012 ft 552 kts 33°
2026-05-08 01:17 32.49522 -86.48463 41019 ft 549 kts 33°
2026-05-08 01:17 32.55147 -86.42334 41016 ft 548 kts 33°
2026-05-08 01:18 32.60770 -86.36199 41017 ft 550 kts 33°
2026-05-08 01:18 32.66413 -86.30026 41017 ft 552 kts 33°
2026-05-08 01:19 32.72057 -86.23845 41014 ft 552 kts 33°
2026-05-08 01:19 32.77662 -86.17692 41016 ft 552 kts 33°
2026-05-08 01:20 32.83293 -86.11502 41019 ft 551 kts 33°
2026-05-08 01:20 32.88925 -86.05298 41022 ft 551 kts 33°
2026-05-08 01:21 32.94551 -85.99091 41025 ft 551 kts 33°
2026-05-08 01:21 33.00172 -85.92877 41024 ft 551 kts 33°
2026-05-08 01:22 33.05784 -85.86664 41016 ft 550 kts 33°
2026-05-08 01:22 33.11395 -85.80436 41020 ft 550 kts 33°
2026-05-08 01:23 33.16993 -85.74217 41019 ft 550 kts 33°
2026-05-08 01:23 33.22598 -85.67974 41023 ft 550 kts 33°
2026-05-08 01:24 33.28191 -85.61736 41025 ft 550 kts 33°
2026-05-08 01:24 33.33755 -85.55518 41026 ft 552 kts 33°
2026-05-08 01:25 33.39374 -85.49226 41026 ft 555 kts 33°
2026-05-08 01:25 33.45016 -85.42896 41045 ft 555 kts 33°
2026-05-08 01:26 33.50640 -85.36574 41064 ft 553 kts 33°
2026-05-08 01:26 33.56242 -85.30267 41088 ft 551 kts 33°
2026-05-08 01:27 33.61830 -85.23966 41101 ft 553 kts 33°
2026-05-08 01:27 33.67456 -85.17609 41101 ft 557 kts 33°
2026-05-08 01:28 33.73094 -85.11220 41099 ft 556 kts 33°
2026-05-08 01:28 33.78670 -85.04896 41040 ft 554 kts 33°
2026-05-08 01:29 33.84272 -84.98528 41046 ft 553 kts 33°
2026-05-08 01:29 33.89875 -84.92150 41046 ft 555 kts 33°
2026-05-08 01:30 33.95498 -84.85733 41046 ft 558 kts 33°
2026-05-08 01:30 34.01141 -84.79280 41039 ft 557 kts 33°
2026-05-08 01:31 34.06747 -84.72860 41043 ft 555 kts 33°
2026-05-08 01:31 34.12339 -84.66445 41047 ft 555 kts 33°
2026-05-08 01:32 34.17928 -84.60019 41037 ft 555 kts 33°
2026-05-08 01:32 34.23737 -84.54120 41048 ft 545 kts 26°
2026-05-08 01:33 34.29741 -84.48468 41057 ft 547 kts 27°
2026-05-08 01:33 34.35748 -84.42845 41057 ft 545 kts 26°
2026-05-08 01:34 34.41732 -84.37221 41053 ft 544 kts 27°
2026-05-08 01:34 34.47701 -84.31598 41033 ft 542 kts 26°
2026-05-08 01:35 34.53675 -84.25970 41022 ft 544 kts 26°
2026-05-08 01:35 34.59608 -84.20358 41020 ft 544 kts 26°
2026-05-08 01:36 34.65576 -84.14709 41034 ft 543 kts 26°
2026-05-08 01:36 34.71534 -84.09058 41046 ft 542 kts 26°
2026-05-08 01:37 34.77489 -84.03400 41062 ft 543 kts 26°
2026-05-08 01:37 34.83415 -83.97757 41066 ft 544 kts 26°
2026-05-08 01:38 34.89379 -83.92069 41066 ft 544 kts 26°
2026-05-08 01:38 34.95336 -83.86374 41054 ft 544 kts 26°
2026-05-08 01:39 35.01291 -83.80674 41046 ft 543 kts 26°
2026-05-08 01:39 35.07243 -83.74963 41054 ft 546 kts 26°
2026-05-08 01:40 35.13233 -83.69205 41052 ft 546 kts 27°
2026-05-08 01:40 35.19201 -83.63457 41042 ft 545 kts 26°
2026-05-08 01:41 35.25135 -83.57736 41041 ft 547 kts 26°
2026-05-08 01:41 35.31115 -83.51950 41025 ft 548 kts 26°
2026-05-08 01:42 35.37101 -83.46154 41017 ft 549 kts 26°
2026-05-08 01:42 35.43095 -83.40338 41021 ft 550 kts 26°
2026-05-08 01:43 35.49090 -83.34503 41024 ft 549 kts 27°
2026-05-08 01:43 35.55075 -83.28678 40998 ft 547 kts 27°
2026-05-08 01:44 35.61044 -83.22846 41016 ft 548 kts 26°
2026-05-08 01:44 35.67027 -83.16998 41023 ft 551 kts 27°
2026-05-08 01:45 35.73039 -83.11102 41020 ft 551 kts 27°
2026-05-08 01:45 35.79019 -83.05229 41021 ft 548 kts 26°
2026-05-08 01:46 35.85015 -82.99621 41023 ft 545 kts 25°
2026-05-08 01:46 35.91049 -82.93925 41019 ft 547 kts 25°
2026-05-08 01:47 35.97104 -82.88235 41029 ft 546 kts 25°
2026-05-08 01:47 36.03147 -82.82524 41031 ft 547 kts 25°
2026-05-08 01:48 36.12200 -82.73965 41037 ft 545 kts 25°
2026-05-08 01:48 36.18222 -82.68246 41031 ft 545 kts 25°
2026-05-08 01:49 36.24259 -82.62517 41027 ft 548 kts 25°
2026-05-08 01:49 36.30318 -82.56742 41013 ft 550 kts 26°
2026-05-08 01:50 36.36356 -82.50985 41021 ft 552 kts 26°
2026-05-08 01:50 36.42435 -82.45165 41026 ft 550 kts 26°
2026-05-08 01:51 36.48482 -82.39378 41029 ft 548 kts 26°
2026-05-08 01:51 36.54520 -82.33581 41028 ft 549 kts 26°
2026-05-08 01:52 36.60561 -82.27770 41020 ft 550 kts 26°
2026-05-08 01:52 36.66627 -82.21923 41041 ft 551 kts 26°
2026-05-08 01:53 36.72693 -82.16062 41041 ft 552 kts 26°
2026-05-08 01:53 36.78752 -82.10200 41039 ft 550 kts 26°
2026-05-08 01:54 36.84788 -82.04343 41034 ft 549 kts 26°
2026-05-08 01:54 36.90782 -81.98521 41034 ft 550 kts 26°
2026-05-08 01:55 36.96830 -81.92630 41047 ft 550 kts 26°
2026-05-08 01:55 37.01856 -81.87725 41054 ft 551 kts 26°
2026-05-08 01:56 37.08926 -81.80815 41059 ft 552 kts 27°
2026-05-08 01:56 37.13964 -81.75875 41057 ft 553 kts 27°
2026-05-08 01:57 37.20017 -81.69938 41040 ft 551 kts 27°
2026-05-08 01:57 37.26039 -81.64010 41028 ft 550 kts 27°
2026-05-08 01:58 37.32061 -81.58077 41010 ft 550 kts 27°
2026-05-08 01:58 37.38087 -81.52125 41017 ft 551 kts 27°
2026-05-08 01:59 37.44078 -81.46191 41021 ft 551 kts 27°
2026-05-08 01:59 37.50106 -81.40215 41021 ft 551 kts 27°
2026-05-08 02:00 37.56132 -81.34225 41021 ft 551 kts 27°
2026-05-08 02:00 37.62145 -81.28232 41028 ft 550 kts 27°
2026-05-08 02:01 37.68146 -81.22246 41035 ft 549 kts 27°
2026-05-08 02:01 37.74126 -81.16258 41041 ft 548 kts 28°
2026-05-08 02:02 37.79714 -81.09586 41037 ft 568 kts 41°
2026-05-08 02:02 37.84600 -81.01631 41039 ft 573 kts 44°
2026-05-08 02:03 37.89488 -80.93682 41026 ft 572 kts 44°
2026-05-08 02:03 37.94342 -80.85713 41026 ft 570 kts 44°
2026-05-08 02:04 37.99187 -80.77776 41017 ft 569 kts 44°
2026-05-08 02:04 38.04019 -80.69822 41022 ft 570 kts 45°
2026-05-08 02:05 38.08856 -80.61848 41026 ft 569 kts 45°
2026-05-08 02:05 38.13680 -80.53873 41022 ft 569 kts 45°
2026-05-08 02:06 38.18467 -80.45942 41027 ft 569 kts 45°
2026-05-08 02:06 38.23284 -80.37940 41025 ft 569 kts 45°
2026-05-08 02:07 38.28088 -80.29937 41028 ft 568 kts 45°
2026-05-08 02:07 38.32879 -80.21943 41007 ft 566 kts 45°
2026-05-08 02:08 38.37670 -80.13932 41020 ft 571 kts 45°
2026-05-08 02:08 38.42479 -80.05855 41016 ft 571 kts 45°
2026-05-08 02:09 38.47282 -79.97784 41021 ft 570 kts 45°
2026-05-08 02:09 38.52043 -79.89753 41018 ft 570 kts 45°
2026-05-08 02:10 38.56825 -79.81676 41012 ft 570 kts 45°
2026-05-08 02:10 38.61599 -79.73582 41007 ft 570 kts 46°
2026-05-08 02:11 38.66362 -79.65497 41004 ft 568 kts 46°
2026-05-08 02:11 38.71117 -79.57399 41007 ft 569 kts 46°
2026-05-08 02:12 38.75873 -79.49283 40999 ft 571 kts 46°
2026-05-08 02:12 38.80630 -79.41137 40993 ft 570 kts 46°
2026-05-08 02:13 38.85375 -79.33002 40984 ft 572 kts 46°
2026-05-08 02:13 38.90157 -79.24775 40978 ft 574 kts 46°
2026-05-08 02:14 38.94911 -79.16573 40976 ft 571 kts 46°
2026-05-08 02:14 38.99627 -79.08427 40961 ft 573 kts 46°
2026-05-08 02:15 39.04387 -79.00172 40966 ft 575 kts 46°
2026-05-08 02:15 39.09147 -78.91903 40958 ft 575 kts 46°
2026-05-08 02:16 39.13896 -78.83627 40955 ft 574 kts 46°
2026-05-08 02:16 39.18623 -78.75371 40953 ft 571 kts 46°
2026-05-08 02:17 39.23539 -78.67382 40947 ft 567 kts 43°
2026-05-08 02:17 39.28530 -78.59540 40943 ft 570 kts 43°
2026-05-08 02:18 39.33536 -78.51602 40946 ft 569 kts 43°
2026-05-08 02:18 39.38542 -78.43697 40926 ft 567 kts 44°
2026-05-08 02:19 39.43513 -78.35787 40929 ft 566 kts 43°
2026-05-08 02:19 39.48475 -78.27900 40926 ft 565 kts 44°
2026-05-08 02:20 39.53429 -78.19985 40924 ft 565 kts 44°
2026-05-08 02:20 39.58384 -78.12063 40931 ft 565 kts 44°
2026-05-08 02:21 39.63328 -78.04130 40927 ft 565 kts 44°
2026-05-08 02:21 39.68241 -77.96234 40861 ft 566 kts 44°
2026-05-08 02:22 39.70710 -77.92256 40236 ft 564 kts 44°
2026-05-08 02:22 39.73142 -77.88319 39662 ft 552 kts 44°
2026-05-08 02:22 39.75523 -77.84467 39103 ft 542 kts 44°
2026-05-08 02:22 39.77879 -77.80671 38540 ft 536 kts 44°
2026-05-08 02:23 39.80214 -77.76903 37855 ft 535 kts 44°
2026-05-08 02:23 39.82555 -77.73109 37179 ft 540 kts 44°
2026-05-08 02:23 39.84922 -77.69265 36529 ft 546 kts 44°
2026-05-08 02:23 39.87301 -77.65397 35906 ft 549 kts 44°
2026-05-08 02:24 39.89690 -77.61507 35292 ft 549 kts 44°
2026-05-08 02:24 39.92050 -77.57700 34703 ft 548 kts 44°
2026-05-08 02:24 39.94200 -77.53551 34098 ft 556 kts 54°
2026-05-08 02:24 39.95907 -77.49005 33441 ft 561 kts 63°
2026-05-08 02:25 39.97449 -77.44337 32760 ft 560 kts 62°
2026-05-08 02:25 39.98987 -77.39647 32096 ft 563 kts 64°
2026-05-08 02:25 40.00433 -77.34883 31453 ft 566 kts 65°
2026-05-08 02:25 40.01867 -77.30097 30828 ft 566 kts 64°
2026-05-08 02:26 40.03368 -77.25353 30216 ft 565 kts 63°
2026-05-08 02:26 40.04883 -77.20632 29538 ft 564 kts 64°
2026-05-08 02:26 40.06351 -77.15880 28823 ft 558 kts 65°
2026-05-08 02:26 40.07746 -77.11265 28132 ft 551 kts 65°
2026-05-08 02:27 40.09176 -77.06648 27449 ft 543 kts 64°
2026-05-08 02:27 40.10604 -77.02110 26789 ft 538 kts 64°
2026-05-08 02:27 40.11997 -76.97608 26135 ft 533 kts 65°
2026-05-08 02:27 40.13360 -76.93131 25499 ft 529 kts 65°
2026-05-08 02:28 40.14725 -76.88677 24874 ft 524 kts 65°
2026-05-08 02:28 40.16086 -76.84276 24265 ft 520 kts 65°
2026-05-08 02:28 40.17434 -76.79894 23669 ft 517 kts 65°
2026-05-08 02:28 40.18760 -76.75540 22995 ft 512 kts 66°
2026-05-08 02:29 40.20069 -76.71245 22294 ft 503 kts 66°
2026-05-08 02:29 40.21357 -76.67033 21606 ft 495 kts 66°
2026-05-08 02:29 40.22622 -76.62886 20937 ft 487 kts 66°
2026-05-08 02:29 40.23865 -76.58796 20281 ft 479 kts 67°
2026-05-08 02:30 40.25069 -76.54827 19646 ft 473 kts 67°
2026-05-08 02:30 40.26276 -76.50851 18997 ft 467 kts 67°
2026-05-08 02:30 40.27466 -76.46920 18394 ft 461 kts 68°
2026-05-08 02:30 40.28638 -76.43042 17716 ft 455 kts 68°
2026-05-08 02:31 40.29792 -76.39217 16997 ft 447 kts 67°
2026-05-08 02:31 40.30921 -76.35469 16227 ft 438 kts 67°
2026-05-08 02:31 40.32026 -76.31800 15454 ft 427 kts 67°
2026-05-08 02:31 40.33095 -76.28239 14705 ft 412 kts 66°
2026-05-08 02:32 40.34125 -76.24805 13971 ft 397 kts 66°
2026-05-08 02:32 40.35119 -76.21494 13180 ft 384 kts 66°
2026-05-08 02:32 40.36085 -76.18275 12373 ft 373 kts 66°
2026-05-08 02:32 40.37019 -76.15152 11581 ft 363 kts 66°
2026-05-08 02:33 40.37918 -76.12140 10832 ft 355 kts 66°
2026-05-08 02:33 40.38808 -76.09159 10078 ft 347 kts 67°
2026-05-08 02:33 40.39677 -76.06248 9299 ft 339 kts 67°
2026-05-08 02:33 40.40526 -76.03392 8506 ft 333 kts 67°
2026-05-08 02:34 40.41362 -76.00586 7730 ft 327 kts 67°
2026-05-08 02:34 40.42181 -75.97828 6970 ft 321 kts 67°
2026-05-08 02:34 40.42985 -75.95120 6223 ft 316 kts 68°
2026-05-08 02:34 40.43776 -75.92456 5449 ft 311 kts 68°
2026-05-08 02:35 40.44554 -75.89826 4690 ft 307 kts 68°
2026-05-08 02:35 40.45322 -75.87233 3917 ft 303 kts 68°
2026-05-08 02:35 40.46079 -75.84670 3295 ft 295 kts 68°
2026-05-08 02:35 40.46802 -75.82222 3006 ft 278 kts 68°
2026-05-08 02:36 40.47471 -75.79956 2984 ft 255 kts 68°
2026-05-08 02:36 40.48085 -75.77869 2993 ft 236 kts 68°
2026-05-08 02:36 40.48659 -75.75926 2990 ft 221 kts 68°
2026-05-08 02:36 40.49191 -75.74116 2988 ft 208 kts 67°
2026-05-08 02:37 40.49702 -75.72388 3000 ft 198 kts 67°
2026-05-08 02:37 40.50189 -75.70727 3004 ft 192 kts 67°
2026-05-08 02:37 40.50658 -75.69128 3001 ft 183 kts 67°
2026-05-08 02:37 40.51110 -75.67596 3002 ft 176 kts 67°
2026-05-08 02:38 40.51685 -75.66230 3004 ft 169 kts 44°
2026-05-08 02:38 40.52493 -75.65106 3009 ft 171 kts 50°
2026-05-08 02:38 40.53216 -75.63852 3005 ft 172 kts 48°
2026-05-08 02:38 40.53996 -75.62645 3006 ft 174 kts 49°
2026-05-08 02:39 40.54719 -75.61418 3002 ft 159 kts 50°
2026-05-08 02:39 40.55372 -75.60364 3000 ft 141 kts 47°
2026-05-08 02:39 40.55973 -75.59384 3008 ft 139 kts 50°
2026-05-08 02:39 40.56584 -75.58361 2972 ft 146 kts 48°
2026-05-08 02:40 40.57236 -75.57329 2791 ft 146 kts 50°
2026-05-08 02:40 40.57837 -75.56301 2610 ft 133 kts 50°
2026-05-08 02:40 40.58430 -75.55370 2428 ft 137 kts 49°
2026-05-08 02:40 40.59019 -75.54376 2243 ft 138 kts 51°
2026-05-08 02:41 40.59623 -75.53402 2053 ft 137 kts 49°
2026-05-08 02:41 40.60207 -75.52441 1870 ft 136 kts 52°
2026-05-08 02:41 40.60792 -75.51473 1690 ft 134 kts 49°
2026-05-08 02:41 40.61381 -75.50526 1495 ft 133 kts 52°
2026-05-08 02:42 40.61950 -75.49566 1312 ft 132 kts 50°
2026-05-08 02:42 40.62538 -75.48637 1119 ft 132 kts 52°
2026-05-08 02:42 40.63075 -75.47718 940 ft 119 kts 52°
2026-05-08 02:42 40.63586 -75.46914 764 ft 112 kts 51°
2026-05-08 02:43 40.64059 -75.46095 637 ft 116 kts 52°
2026-05-08 02:43 40.64569 -75.45280 481 ft 113 kts 52°
2026-05-08 02:43 40.65024 -75.44529 391 ft 92 kts 51°
2026-05-08 02:43 40.65338 -75.44015 385 ft 57 kts 52°
2026-05-08 02:44 40.65548 -75.43671 387 ft 38 kts 47°
2026-05-08 02:44 40.65657 -75.43516 385 ft 14 kts
2026-05-08 02:44 40.65706 -75.43561 385 ft 14 kts 311°
2026-05-08 02:44 40.65776 -75.43667 388 ft 16 kts 311°
2026-05-08 02:45 40.65834 -75.43720 389 ft 10 kts 25°
2026-05-08 02:45 40.65889 -75.43634 388 ft 15 kts 51°
2026-05-08 02:45 40.65972 -75.43498 386 ft 9 kts 52°
2026-05-08 02:45 40.66034 -75.43476 388 ft 11 kts 354°
2026-05-08 02:46 40.66048 -75.43478 389 ft 0 kts 354°